This is the latest recevied weather packets stored in our database for station/object SP3OTE-2. If no packets are shown the sender has not sent any weather packets the latest 10 day(s).
| Time | Temp. | Humidity | Pressure | Rain* | Wind** | Luminosity | Snow |
|---|---|---|---|---|---|---|---|
| 1777593841 | 11.11° C | 63% | 1028 hPa | - | - | - | - |
| 1777593241 | 11.11° C | 64% | 1028.2 hPa | - | - | - | - |
| 1777592641 | 11.11° C | 63% | 1028.1 hPa | - | - | - | - |
| 1777592040 | 11.11° C | 60% | 1028.1 hPa | - | - | - | - |
| 1777591440 | 11.11° C | 61% | 1028.1 hPa | - | - | - | - |
| 1777590840 | 11.11° C | 61% | 1028.2 hPa | - | - | - | - |
| 1777590240 | 11.11° C | 61% | 1028.2 hPa | - | - | - | - |
| 1777589639 | 11.11° C | 59% | 1028.2 hPa | - | - | - | - |
| 1777589039 | 11.67° C | 57% | 1028.2 hPa | - | - | - | - |
| 1777588439 | 11.67° C | 57% | 1028.2 hPa | - | - | - | - |
| 1777587839 | 11.67° C | 55% | 1028.1 hPa | - | - | - | - |
| 1777587238 | 11.67° C | 55% | 1028.2 hPa | - | - | - | - |
| 1777586638 | 11.11° C | 57% | 1028.2 hPa | - | - | - | - |
| 1777586038 | 11.11° C | 56% | 1028.3 hPa | - | - | - | - |
| 1777585438 | 11.67° C | 55% | 1028.2 hPa | - | - | - | - |
| 1777584837 | 12.22° C | 52% | 1028.4 hPa | - | - | - | - |
| 1777584237 | 12.22° C | 49% | 1028.2 hPa | - | - | - | - |
| 1777583637 | 12.78° C | 49% | 1028.3 hPa | - | - | - | - |
| 1777583036 | 12.78° C | 49% | 1028.2 hPa | - | - | - | - |
| 1777582436 | 12.78° C | 49% | 1028.2 hPa | - | - | - | - |
| 1777581836 | 12.78° C | 50% | 1028.3 hPa | - | - | - | - |
| 1777581236 | 12.78° C | 50% | 1028.3 hPa | - | - | - | - |
| 1777580635 | 12.22° C | 51% | 1028.4 hPa | - | - | - | - |
| 1777580035 | 12.22° C | 52% | 1028.4 hPa | - | - | - | - |
| 1777579435 | 12.78° C | 51% | 1028.5 hPa | - | - | - | - |
* Rain since midnight (hover to see other rain measurements)
** Current wind speed in m/s (hover to see current wind gust speed)